TIME,DELAY(SENSOR),PRES,T(CTD),SAL,OXYGEN,RAWTEMP,T(OPTODE),TCPHASE,FLUOR,BETA(BETA700),BETA(BETA412),BETA(BETA440),CDOM,C(CSC),ED(ED411.90),ED(ED443.80),ED(ED489.40),ED(ED554.70),LU(LU412.20),LU(LU443.80),LU(LU489.40),LU(LU555.00),COMP,TILTX,TILTX(TILTY),CHECK
1371830633,5806,497.1600036621094000,18.2789001464843750,36.5509986877441400,241.3495941162109400,146.1051025390625000,18.2745208740234380,30.3113899230957030,50,99,93,81,64,10416,2146958253,2147514907,2147264923,2147454372,2147081545,2146955236,2147651273,2147132150,849,-1,8,20197
1371830754,5806,486.5499877929687500,18.3511009216308600,36.5500984191894500,245.3370056152343800,143.5634002685547000,18.3513298034667970,30.0937900543212900,50,99,93,82,64,10406,2146959332,2147513627,2147267538,2147451373,2147080676,2146954477,2147648338,2147130240,948,-1,8,5928
1371830878,5802,475.6499938964844000,18.3938999176025400,36.5504989624023440,251.1555938720703000,142.3347015380859400,18.3884696960449220,29.8159503936767580,50,98,95,81,63,10412,2146955684,2147514148,2147262802,2147453110,2147082870,2146957074,2147651547,2147125056,1209,-1,8,56830
1371831010,5804,464.1199951171875000,18.4197998046875000,36.5517005920410160,253.8220062255859400,141.4380035400390600,18.4155693054199220,29.6866893768310550,50,100,94,80,64,10409,2146958774,2147518765,2147263414,2147452260,2147081280,2146960694,2147647131,2147127021,1022,-1,8,58117
1371831131,5807,453.6799926757812500,18.4428997039794920,36.5532989501953100,255.2839050292968800,140.7205963134765600,18.4372596740722660,29.6137104034423830,50,98,93,81,64,10408,2146958939,2147513572,2147265170,2147448612,2147078427,2146957504,2147651382,2147126454,538,-1,8,54634
1371831265,5809,442.2500000000000000,18.4556999206542970,36.5554008483886700,255.7904052734375000,140.1325073242187500,18.4550399780273440,29.5839805603027340,50,99,94,80,63,10405,2146956507,2147516571,2147262546,2147450669,2147083913,2146957860,2147651062,2147131163,515,-1,8,36514
1371831397,5804,431.0499877929687500,18.4750003814697270,36.5587997436523440,256.2720947265625000,139.6217956542968800,18.4704799652099600,29.5563392639160160,50,101,94,80,63,10406,2146957942,2147516955,2147264283,2147448676,2147077787,2146955675,2147649078,2147127158,456,-1,8,21303
1371831521,5807,420.5799865722656000,18.4888000488281250,36.5617980957031250,256.3994140625000000,139.1580047607422000,18.4845008850097660,29.5448894500732420,50,101,94,79,62,10409,2146955840,2147517613,2147264996,2147450459,2147080877,2146960512,2147647780,2147128210,450,-1,8,12640
1371831653,5802,409.3900146484375000,18.5027008056640620,36.5632019042968750,256.5248107910156000,138.6710052490234400,18.4992198944091800,29.5329093933105470,50,103,93,82,63,10407,2146958875,2147514221,2147262921,2147451849,2147081435,2146957952,2147644772,2147128612,2526,-1,8,31610
1371831788,5805,397.8599853515625000,18.5132999420166000,36.5634994506835940,256.6878051757812500,138.3764953613281200,18.5081291198730470,29.5221099853515620,50,99,95,81,63,10404,2146958610,2147516955,2147265261,2147451081,2147076928,2146954185,2147649828,2147125019,2293,-1,8,20109
1371831909,5810,387.5599975585937500,18.5193996429443360,36.5647010803222660,256.8616027832031000,138.0946960449218800,18.5166492462158200,29.5109806060791000,50,100,94,81,63,10411,2146957138,2147512548,2147265234,2147450971,2147079542,2146956342,2147650432,2147127844,1880,-1,8,34239
1371832041,5808,376.3099975585937500,18.5310001373291000,36.5663986206054700,257.1282043457031000,137.7729034423828000,18.5263805389404300,29.4952907562255860,50,101,94,81,63,10403,2146957339,2147515227,2147266605,2147449673,2147079588,2146959341,2147643565,2147129481,1763,-1,8,14309
1371832175,5805,364.9299926757812500,18.5361995697021500,36.5676002502441400,257.3584899902344000,137.6045989990234400,18.5314693450927730,29.4831295013427730,50,101,94,81,63,10401,2146957604,2147514203,2147264100,2147447003,2147076434,2146957449,2147647798,2147128018,1613,-1,8,62087
1371832296,5805,354.7699890136719000,18.5333995819091800,36.5670013427734400,257.1583862304687500,137.6757049560547000,18.5293197631835940,29.4929504394531250,50,101,94,80,63,10403,2146956571,2147515510,2147265307,2147450386,2147079689,2146955474,2147649362,2147126555,1032,-1,8,32274
1371832431,5807,343.4800109863281000,18.5301990509033200,36.5657005310058600,257.1948852539062500,137.8341979980468800,18.5245304107666000,29.4933395385742200,50,100,94,81,65,10403,2146957357,2147512393,2147267072,2147448694,2147078491,2146963072,2147645732,2147125449,317,-1,8,6237
1371832563,5804,332.5799865722656000,18.5184993743896500,36.5589981079101560,257.1249084472656000,138.1584930419922000,18.5147209167480470,29.5005302429199220,50,101,94,80,63,10404,2146953837,2147514514,2147265627,2147447826,2147080027,2146951506,2147648384,2147131108,3276,-1,8,63651
1371832698,5809,321.7799987792969000,18.5095005035400400,36.5513992309570300,257.4259033203125000,138.4207000732422000,18.5067901611328120,29.4910202026367200,50,101,94,81,64,10403,2146957083,2147516964,2147266038,2147448786,2147074706,2146953270,2147647341,2147126884,1856,-1,8,56356
1371832841,5805,310.5799865722656000,18.5179996490478500,36.5507011413574200,257.5678100585937500,138.1726074218750000,18.5142898559570300,29.4817008972167970,50,100,94,81,62,10404,2146956123,2147515995,2147265984,2147445604,2147078336,2146954889,2147648786,2147128182,1505,-1,8,16317
1371832984,5807,299.6000061035156000,18.5314006805419920,36.5504989624023440,257.7630920410156000,137.7319946289062500,18.5276203155517580,29.4674491882324220,50,99,94,81,63,10402,2146957385,2147509650,2147264448,2147450066,2147075794,2146953362,2147652141,2147125010,687,-1,8,54079
1371833114,5806,288.2200012207031000,18.5471992492675780,36.5517005920410160,257.7784118652344000,137.2559967041015600,18.5420093536376950,29.4606704711914060,50,100,94,82,62,10397,2146955510,2147513554,2147268132,2147448877,2147081682,2146955163,2147653229,2147128192,3145,-1,8,11315
1371833225,5805,277.0299987792969000,18.5590000152587900,36.5532989501953100,257.7229919433594000,136.8486022949218800,18.5543308258056640,29.4578495025634770,50,101,94,81,63,10401,2146955474,2147513764,2147269284,2147450395,2147079780,2146957988,2147654802,2147127003,2198,-1,8,7232
1371833335,5807,266.0299987792969000,18.5673999786376950,36.5532989501953100,257.4049987792969000,136.5941009521484400,18.5620193481445300,29.4682598114013670,50,99,94,80,63,10397,2146961106,2147513819,2147266011,2147446518,2147077092,2146963300,2147656384,2147129846,1714,-1,8,7334
1371833447,5806,254.7599945068359400,18.5849990844726560,36.5541992187500000,257.4096069335937500,135.9029998779297000,18.5829200744628900,29.4588909149169920,51,99,94,81,63,10403,2146954852,2147515108,2147264960,2147446857,2147077760,2146957001,2147657627,2147127149,1246,-1,8,54698
1371833557,5808,243.7100067138672000,18.6415996551513670,36.5567016601562500,257.3612060546875000,134.1107025146484400,18.6371307373046880,29.4377307891845700,50,99,94,82,63,10402,2146958016,2147513517,2147265627,2147449078,2147075730,2146961005,2147661888,2147128420,3557,-1,8,35860
1371833667,5809,232.7299957275390600,18.6763992309570300,36.5592002868652340,258.1104125976562500,132.6804046630859400,18.6803894042968750,29.3870906829834000,50,99,94,82,62,10402,2146956498,2147512502,2147267282,2147446436,2147079222,2146963072,2147668068,2147127067,2644,-2,8,34077
1371833792,5804,221.7599945068359400,18.7409992218017580,36.5614013671875000,258.4602966308594000,130.6573944091797000,18.7415790557861330,29.3458690643310550,52,99,94,81,63,10401,2146957650,2147515574,2147265984,2147448676,2147078308,2146965138,2147670372,2147128896,1926,-1,8,19875
1371833946,5804,210.8699951171875000,18.7982006072998050,36.5642013549804700,258.6278991699219000,128.9015960693359400,18.7947101593017580,29.3160190582275400,53,103,93,81,63,10397,2146955712,2147511222,2147267922,2147448064,2147084873,2146967652,2147679853,2147131419,1494,-1,8,6716
1371834095,5807,199.3899993896484400,18.9246006011962900,36.5703010559082000,255.5182037353515600,124.3205032348632800,18.9333496093750000,29.3904209136962900,55,104,94,82,63,10394,2146959222,2147514185,2147267803,2147446564,2147079113,2146982985,2147699547,2147132342,799,-1,8,61894
1371834150,5806,194.4400024414062500,19.0258998870849600,36.5755004882812500,252.6466979980468800,121.4425964355468800,19.0204792022705080,29.4782295227050780,58,106,95,80,65,10392,2146957878,2147513014,2147270345,2147448009,2147079360,2146990098,2147708589,2147129792,626,-2,7,56181
1371834205,5804,189.5800018310547000,19.0748996734619140,36.5783996582031250,251.5895996093750000,119.5143966674804700,19.0788593292236330,29.4996604919433600,59,103,95,81,64,10392,2146955876,2147513801,2147268022,2147445869,2147078573,2146992832,2147718546,2147131858,138,-1,8,51147
1371834260,5808,184.6600036621093800,19.1870994567871100,36.5853004455566400,249.4181976318359400,115.6131973266601600,19.1970291137695300,29.5451698303222660,60,103,95,83,64,10389,2146956416,2147515757,2147269549,2147444745,2147086528,2146998710,2147730697,2147130898,885,-1,7,25324
1371834315,5806,179.8699951171875000,19.3715000152587900,36.6057014465332000,245.7843017578125000,110.0186004638671900,19.3665504455566400,29.6353492736816400,61,104,94,80,66,10388,2146953618,2147516096,2147268973,2147446482,2147074358,2147012754,2147741540,2147134976,572,-1,8,40760
1371834393,5805,173.4199981689453000,19.4568004608154300,36.6002998352050800,242.0204010009765600,107.0311965942382800,19.4571208953857420,29.7679100036621100,60,103,95,83,63,10393,2146957403,2147515190,2147268946,2147443849,2147088402,2147026861,2147774921,2147135149,3189,-1,8,6817
1371834448,5806,169.1499938964843800,19.4871006011962900,36.5968017578125000,246.0431060791015600,105.8369979858398400,19.4933204650878900,29.5696105957031250,64,104,95,81,64,10388,2146953883,2147516461,2147268260,2147445430,2147085330,2147043931,2147795474,2147136210,3348,-1,8,19087
1371834503,5805,164.8500061035156200,19.6060009002685550,36.6097984313964840,247.0774993896484400,102.0046997070312500,19.6095600128173830,29.4735298156738280,63,106,95,83,65,10385,2146954166,2147513398,2147270198,2147444388,2147084763,2147053028,2147816009,2147136073,2686,-2,8,31448
1371834558,5806,160.6600036621093800,19.7031002044677730,36.6216011047363300,243.5634002685547000,99.1771163940429700,19.6953392028808600,29.5955390930175780,59,102,94,82,65,10399,2146956260,2147520393,2147271899,2147443648,2147096384,2147068864,2147836150,2147136557,1934,-1,8,13780
1371834613,5808,156.5200042724609400,19.9605998992919920,36.6594009399414060,234.2295074462890600,90.5558700561523400,19.9570808410644530,29.9179191589355470,57,104,94,81,66,10395,2146958034,2147517174,2147274706,2147444672,2147098870,2147081746,2147861193,2147139712,1809,-2,9,61585
1371834668,5806,152.5399932861328000,20.0366992950439450,36.6497001647949200,233.5260925292968800,88.0137786865234400,20.0342998504638670,29.9184494018554700,58,102,94,82,65,10392,2146959707,2147519826,2147272896,2147443382,2147099675,2147100790,2147888128,2147142820,1763,-2,8,16712
1371834749,5804,147.5899963378906200,20.2138004302978500,36.6711997985839840,232.2700958251953000,82.5049362182617200,20.2017307281494140,29.9069995880126950,54,100,94,81,67,10404,2146958756,2147518427,2147273371,2147441764,2147113161,2147127040,2147916370,2147146770,962,-2,8,22767
1371834837,5803,143.4600067138672000,20.3232002258300780,36.6828994750976560,229.1784973144531200,78.4998168945312500,20.3235206604003900,30.0042495727539060,53,101,94,81,66,10401,2146956772,2147518848,2147274368,2147438683,2147122989,2147149129,2147943734,2147145490,508,-2,8,39948
1371834925,5804,139.9499969482422000,20.5652999877929700,36.6888008117675800,228.0133056640625000,71.2275085449218800,20.5448303222656250,29.9664897918701170,53,99,94,81,65,10401,2146955117,2147516790,2147276553,2147442733,2147127835,2147163200,2147969801,2147151131,704,-1,8,39034
1371835038,5803,136.0700073242187500,20.6068000793457030,36.6913986206054700,229.8600006103515600,69.3003768920898400,20.6035099029541000,29.8520393371582030,51,98,93,82,66,10404,2146961728,2147521170,2147274806,2147443227,2147143680,2147200804,2148012443,2147152201,1102,-1,8,48644
1371835159,5804,131.9299926757812500,20.7530994415283200,36.6819992065429700,232.8979949951172000,64.7703933715820300,20.7415103912353500,29.6478900909423830,52,102,92,82,66,10402,2146959250,2147521691,2147281362,2147441490,2147159826,2147257307,2148088832,2147158546,1451,-1,8,22538
1371835280,5803,127.9700012207031200,20.7747993469238280,36.6603012084960940,238.4351959228515600,63.8778915405273440,20.7686996459960940,29.3767204284667970,53,105,95,81,64,10403,2146958838,2147522331,2147279954,2147440749,2147186678,2147316928,2148179337,2147164214,2143,-2,9,11823
1371835391,5809,123.8499984741211000,21.0321006774902340,36.6931991577148440,237.3242034912109400,55.7683410644531250,21.0159893035888670,29.3244895935058600,56,106,93,82,65,10399,2146956379,2147526043,2147283949,2147439433,2147212992,2147391689,2148281408,2147167789,2679,-1,9,33133
1371835490,5803,119.7399978637695300,20.9521007537841800,36.5952987670898440,236.3307952880859400,57.7941017150878900,20.9541893005371100,29.3967208862304700,74,110,96,86,64,10371,2146959378,2147526235,2147289645,2147436260,2147244955,2147459547,2148380626,2147176192,3477,-1,8,19203
1371835611,5807,116.0999984741211000,21.2479991912841800,36.6506004333496100,235.4089965820312500,48.7157287597656250,21.2312698364257800,29.3234500885009770,94,122,98,84,66,10349,2146957723,2147528539,2147290925,2147437842,2147280082,2147526701,2148472612,2147183570,143,-1,9,36280
1371835736,5803,111.4899978637695300,21.3071002960205080,36.5955009460449200,229.4864959716797000,46.2943115234375000,21.3052406311035160,29.5735893249511720,104,116,96,84,64,10336,2146960694,2147533028,2147296109,2147436050,2147334253,2147614710,2148607478,2147194560,767,-1,8,42874
1371835824,5804,107.7200012207031200,21.3889007568359380,36.5736007690429700,247.7301025390625000,41.8775215148925800,21.4402294158935550,28.6789894104003900,99,113,96,85,63,10310,2146958418,2147534363,2147302372,2147435008,2147391780,2147717339,2148749193,2147207597,1329,-1,9,31627
1371835923,5807,103.9199981689453100,21.8141002655029300,36.6619987487793000,238.8959045410156200,30.1703090667724600,21.7984790802001950,28.9267406463623050,123,121,96,85,63,10336,2146963318,2147540644,2147308800,2147436480,2147467876,2147839341,2148912100,2147226267,1836,-2,9,45157
1371836027,5807,99.3399963378906200,22.0172004699707030,36.6693000793457000,234.4178924560547000,23.3141002655029300,22.0086002349853500,29.0468006134033200,124,121,97,84,63,10328,2146965403,2147545389,2147321554,2147434505,2147597366,2148049426,2149206354,2147250852,2395,-1,8,48874
1371836082,5805,96.3499984741211000,22.1583995819091800,36.6786003112793000,233.0292968750000000,17.8250198364257800,22.1769905090332030,29.0422992706298830,133,129,97,85,64,10315,2146968246,2147552009,2147330651,2147435684,2147706294,2148215789,2149423926,2147272731,2798,-2,8,10189
1371836137,5806,93.5899963378906200,22.3740005493164060,36.7155990600585940,225.5478973388672000,11.8587598800659180,22.3602104187011720,29.3241901397705080,135,127,100,86,66,10310,2146970578,2147558180,2147340790,2147433956,2147822546,2148396946,2149662217,2147296886,2567,-2,9,54501
1371836192,5804,91.0400009155273400,22.4256000518798830,36.6986999511718750,219.1651000976562500,10.1856698989868160,22.4116191864013670,29.6189498901367200,143,131,97,83,65,10312,2146973632,2147563922,2147350491,2147438848,2147952429,2148586230,2149906358,2147324269,2026,-2,9,56982
1371836247,5806,88.6900024414062500,22.4804000854492200,36.6715011596679700,219.1289978027343800,8.2010154724121100,22.4726295471191400,29.5953102111816400,144,140,100,86,63,10306,2146979849,2147572050,2147363794,2147437952,2148096338,2148792557,2150164626,2147349641,1840,-2,9,14564
1371836304,5808,86.5400009155273400,22.5069007873535160,36.6670989990234400,220.8861999511718800,7.3787298202514650,22.4979190826416000,29.4966793060302730,144,132,99,85,64,10299,2146980388,2147577664,2147372370,2147435227,2148254628,2149016640,2150425078,2147382482,1888,-1,9,48861
1371836359,5809,84.7399978637695300,22.5443992614746100,36.6679992675781250,221.4850006103515600,5.8942699432373050,22.5435695648193360,29.4479503631591800,142,148,98,85,64,10299,2146983314,2147585810,2147387894,2147437686,2148414464,2149231588,2150678016,2147411154,1684,-1,9,21145
1371836414,5808,83.0400009155273400,22.6721000671386720,36.6817016601562500,220.4219970703125000,2.4342029094696045,22.6500301361084000,29.4569606781005860,162,137,98,86,66,10300,2146985188,2147595117,2147395721,2147438272,2148594112,2149461942,2150944978,2147443090,1682,-2,8,53549
1371836480,5805,81.2200012207031200,22.8069000244140620,36.6852989196777340,217.0816040039062500,-1.9763950109481812,22.7858295440673830,29.5685501098632800,153,137,99,86,66,10310,2146994898,2147604452,2147410678,2147439469,2148809161,2149742025,2151257746,2147480365,1744,-1,9,61317
1371836568,5807,79.2500000000000000,22.8094005584716800,36.6234016418457000,215.0099029541015600,-2.7016100883483887,22.8081703186035160,29.6650505065917970,175,145,98,85,66,10274,2147001179,2147616493,2147428068,2147437056,2149063460,2150077750,2151636150,2147526518,1955,-2,9,6970
1371836650,5802,77.0500030517578100,22.9127998352050780,36.5802993774414060,227.2787933349609400,-5.7618951797485350,22.9024696350097660,29.0171394348144530,209,134,101,88,63,10236,2147010404,2147636425,2147453266,2147439972,2149473472,2150564288,2152191506,2147596032,2041,-2,9,49508
1371836716,5808,74.8399963378906200,23.0883007049560550,36.5735015869140600,234.8607025146484400,-11.0370702743530270,23.0651607513427730,28.5938606262207030,225,147,102,88,64,10225,2147023177,2147657234,2147479579,2147442560,2149898486,2151063634,2152725458,2147667291,1779,-2,9,13125
1371836771,5799,73.3700027465820300,23.1536006927490230,36.5573005676269500,238.5720062255859400,-13.4705801010131840,23.1402702331542970,28.3939704895019530,203,143,104,90,63,10213,2147026779,2147667876,2147494116,2147443446,2150208896,2151416201,2153088612,2147716379,1389,-2,9,3052
1371836870,5806,71.5400009155273400,23.2138996124267580,36.5512008666992200,245.4949035644531200,-15.3546304702758790,23.1984405517578120,28.0627193450927730,184,136,106,90,63,10242,2147037842,2147689728,2147523483,2147443172,2150628251,2151872786,2153550262,2147778642,2260,-2,9,21143
1371836973,5803,69.0800018310546900,23.2350006103515620,36.3793983459472660,248.6909027099609400,-15.9737300872802730,23.2175598144531250,27.9164695739746100,126,128,99,88,61,10269,2147064475,2147730258,2147572233,2147451245,2151575113,2152904246,2154505097,2147905654,2153,-1,9,34773
1371837039,5806,67.2900009155273400,23.3125991821289060,36.3466987609863300,254.4494934082031200,-18.4139308929443360,23.2929496765136720,27.6420001983642580,100,124,100,85,61,10287,2147076123,2147757778,2147588864,2147447524,2152107154,2153472100,2154959945,2147966016,1374,-2,9,8860
1371837265,5807,65.1600036621093800,23.3920001983642580,36.3414001464843750,262.2225952148437500,-21.5072593688964840,23.3885707855224600,27.2848300933837900,97,126,102,87,59,10292,2147099273,2147789385,2147616091,2147449545,2152926893,2154262802,2155526738,2148053467,3479,-1,9,5520
1371837331,5808,62.9099998474121100,23.6152992248535160,36.3302993774414060,259.5226135253906000,-28.5797290802001950,23.6074104309082030,27.3083000183105470,97,127,98,86,60,10281,2147125430,2147833581,2147658413,2147454372,2154121572,2155506578,2156555840,2148188333,3518,-1,9,38781
1371837397,5805,61.3100013732910160,24.0415000915527340,36.3120994567871100,256.2109069824219000,-40.7655982971191400,23.9852294921875000,27.2958106994628900,96,125,100,87,60,10281,2147137645,2147859730,2147683648,2147457901,2154789906,2156197293,2157105014,2148259236,134,-2,8,14753
1371837623,5807,59.3499984741210940,24.1755008697509770,36.3162994384765600,255.9353942871093800,-46.6890792846679700,24.1692504882812500,27.2349891662597660,97,124,98,86,61,10286,2147160713,2147889554,2147713517,2147457654,2155688283,2157073600,2157763392,2148358290,2560,-2,8,28151
1371837711,5803,57.5800018310546900,24.5657005310058600,36.3381004333496100,253.5807952880859400,-57.3980598449707000,24.5025501251220700,27.2024898529052730,92,124,98,86,62,10285,2147172736,2147917760,2147741613,2147460781,2156497874,2157914020,2158435730,2148451090,1598,-1,9,3707
1371837881,5804,56.5499992370605500,24.8367996215820300,36.3280982971191400,252.0814056396484400,-67.2621307373046900,24.8102798461914060,27.1452999114990230,97,123,98,85,62,10274,2147193161,2147941440,2147761088,2147461421,2157195419,2158605403,2158974116,2148530752,860,-1,8,23201
1371838260,5805,53.0499992370605500,25.7206001281738280,36.2274017333984400,251.7597045898437500,-93.3693008422851600,25.6282901763916000,26.8426704406738280,88,120,98,87,61,10259,2147259072,2148063131,2147879872,2147473142,2160286537,2161859291,2161655305,2148906422,499,0,8,59982
1371838294,5808,52.9500007629394500,25.7443008422851560,36.2229003906250000,250.9850006103515600,-93.7511901855468800,25.6402893066406250,26.8703899383544920,88,128,97,87,63,10264,2147262381,2148068598,2147884608,2147470848,2160407579,2162000118,2161797814,2148925942,544,-1,8,42848
1371838606,5803,50.8800010681152340,25.8460006713867200,36.1948013305664060,257.5304870605469000,-100.0223007202148400,25.8376007080078120,26.5260200500488280,83,120,97,86,61,10264,2147373650,2148264521,2148094811,2147492114,2165102272,2167082669,2166215405,2149530660,1426,-2,9,3800
1371838870,5803,48.7999992370605500,26.2437992095947270,36.1661987304687500,252.5635986328125000,-112.7394027709961000,26.2387199401855470,26.5760707855224600,76,119,97,86,59,10274,2147535369,2148532379,2148355977,2147519524,2171907629,2174204644,2172017316,2150302482,1187,-2,9,48611
1371838987,5805,46.7799987792968750,26.2392997741699220,36.1565017700195300,255.2644958496093800,-112.9011993408203100,26.2438392639160160,26.4634304046630860,72,118,97,85,59,10284,2147657709,2148734546,2148520795,2147535350,2177152210,2179631241,2176283629,2150897572,467,-2,8,49345
1371839082,5809,44.3400001525878900,26.2420005798339840,36.1562004089355500,251.1316986083984400,-112.9539031982421900,26.2455005645751950,26.6326808929443360,70,119,97,87,60,10281,2147819648,2149000649,2148749650,2147567524,2184404178,2187038061,2181989577,2151768009,44,-1,9,35565
1371839115,5805,42.7799987792968750,26.2402992248535160,36.1548995971679700,250.8085021972656200,-112.9094009399414000,26.2440891265869140,26.6465797424316400,70,117,96,86,59,10279,2147912649,2149151469,2148886747,2147583021,2188617572,2191309211,2185189184,2152268086,73,-1,8,45652
1371839160,5809,40.5200004577636700,26.2376995086669920,36.1525001525878900,251.0778961181640600,-112.8452987670898400,26.2420692443847660,26.6361808776855470,68,116,97,84,58,10279,2148055670,2149388443,2149078582,2147614893,2195262381,2197999552,2190194816,2153106112,3507,-1,9,3825
1371839205,5805,38.3199996948242200,26.2310009002685550,36.1482009887695300,251.8768005371093800,-112.6848983764648400,26.2369995117187500,26.6050395965576170,67,117,97,86,59,10280,2148204772,2149628315,2149290075,2147654308,2202335113,2205131008,2195505947,2154006729,3363,-1,9,55626
1371839238,5803,36.7500000000000000,26.2206993103027340,36.1439018249511700,253.7722015380859400,-112.4524002075195300,26.2296600341796880,26.5297908782959000,66,117,95,85,59,10280,2148319981,2149817636,2149448630,2147680000,2207935835,2210747867,2199638692,2154758125,3245,-1,9,29544
1371839283,5804,34.6399993896484400,26.2189998626709000,36.1333999633789060,252.5984039306640600,-112.3102035522461000,26.2251605987548830,26.5798492431640620,67,118,97,85,59,10280,2148475035,2150077906,2149663177,2147724032,2215507958,2218336045,2205151661,2155823963,3126,-1,9,19969